User: anonymous   Login
Location: Unspecified
(0.0000°N, 0.0000°E)
Time: 12:00:43
(UTC+01:00)
Language:

Cosmos 407 Rocket - Orbit

View from above orbital plane
View from above orbital plane
View from above satellite
View from above satellite

Ground track
Ground track

The orbit data is extracted from the following two-line orbital elements,

1 05175U 71035B   14351.71667915  .00000448  00000-0  15715-3 0  5826
2 05175 074.0497 087.8590 0029368 164.9907 195.2125 14.37589263283817
Epoch (UTC): 17 December 2014 17:12:01
Eccentricity: 0.0029368
inclination: 74.0497°
perigee height: 745 km
apogee height: 787 km
right ascension of ascending node: 87.8590°
argument of perigee: 164.9907°
revolutions per day: 14.37589263
mean anomaly at epoch: 195.2125°
orbit number at epoch: 28381

The dashed part of the orbit path shows where the satellite is in the earth's shadow,  

DLR